Arlington, TX

2:36 PM CDT on April 26, 2017 (GMT -0500)
Arlington Municipal

Weather History for KGKY - March, 2014

Change the Weather History Date:

Friday, March 28, 2014

  Actual Average (KRBD) Record (KRBD)
Temperature  
Mean Temperature 70 °F -  
Max Temperature 82 °F 68 °F 84 °F (1998)
Min Temperature 55 °F 50 °F 34 °F (2009)
Cooling Degree Days 4    
Growing Degree Days 20 (Base 50)    
Moisture  
Dew Point 58 °F    
Average Humidity 71    
Maximum Humidity 94    
Minimum Humidity 33    
Precipitation  
Precipitation 0.02 in - - ()
Sea Level Pressure  
Sea Level Pressure 29.80 in    
Wind  
Wind Speed 8 mph (SW)    
Max Wind Speed 21 mph    
Max Gust Speed 31 mph    
Visibility 9 miles    
Events Rain , Thunderstorm    
Averages and records for this station are not official NWS values.
T = Trace of Precipitation, MM = Missing Value Source: NWS Daily Summary

Daily Weather History Graph

Daily Weather History Graph

Search for Another Location

Airport or City:

Trip Planner

Search our weather history database for the weather conditions in past years. The results will help you decide how hot, cold, wet, or windy it might be!

Date:

Astronomy

Mar. 28, 2014 Rise Set
Actual Time 7:21 AM CDT 7:45 PM CDT
Civil Twilight 6:56 AM CDT 8:10 PM CDT
Nautical Twilight 6:28 AM CDT 8:39 PM CDT
Astronomical Twilight 5:58 AM CDT 9:08 PM CDT
Moon 5:46 AM CDT (3/28) 5:49 PM CDT (3/28)
Length of Visible Light 13h 13m
Length of Day
12h 24m
Waning Crescent, 6% of the Moon is Illuminated
Mar 28
Waning Crescent
Mar 30
New
Apr 7
First Quarter
Apr 15
Full
Apr 22
Last Quarter

Hourly Weather History & Observations

Time (CDT) Temp. Heat Index Dew Point Humidity Pressure Visibility Wind Dir Wind Speed Gust Speed Precip Events Conditions
12:53 AM 64.9 °F - 63.0 °F 93% 29.73 in 10.0 mi SE 4.6 mph - N/A   Clear
1:53 AM 64.9 °F - 63.0 °F 93% 29.72 in 7.0 mi South 3.5 mph - N/A   Partly Cloudy
2:03 AM 64.4 °F - 62.6 °F 94% 29.74 in 6.0 mi SSE 4.6 mph - N/A   Mostly Cloudy
2:53 AM 68.0 °F - 66.0 °F 93% 29.71 in 6.0 mi South 6.9 mph - N/A   Overcast
3:53 AM 69.1 °F - 66.0 °F 90% 29.70 in 8.0 mi South 8.1 mph - N/A   Overcast
4:15 AM 69.8 °F - 64.4 °F 83% 29.72 in 9.0 mi South 9.2 mph - N/A   Overcast
4:53 AM 69.1 °F - 64.9 °F 87% 29.70 in 8.0 mi SSE 8.1 mph - N/A   Overcast
5:53 AM 69.1 °F - 64.9 °F 87% 29.73 in 9.0 mi SSE 5.8 mph - N/A   Overcast
6:53 AM 68.0 °F - 64.9 °F 90% 29.75 in 8.0 mi SSE 6.9 mph - N/A   Overcast
7:29 AM 68.0 °F - 64.4 °F 88% 29.78 in 9.0 mi SSE 6.9 mph - N/A   Overcast
7:53 AM 69.1 °F - 64.9 °F 87% 29.77 in 8.0 mi SSE 8.1 mph - N/A   Overcast
8:53 AM 69.1 °F - 64.9 °F 87% 29.80 in 8.0 mi South 11.5 mph - N/A   Mostly Cloudy
9:53 AM 73.0 °F - 64.9 °F 76% 29.79 in 10.0 mi SSW 11.5 mph 19.6 mph N/A   Clear
10:53 AM 75.9 °F - 64.0 °F 67% 29.80 in 10.0 mi SSW 13.8 mph 18.4 mph N/A   Clear
11:53 AM 79.0 °F - 61.0 °F 54% 29.80 in 10.0 mi SSW 10.4 mph - N/A   Clear
12:53 PM 82.0 °F - 50.0 °F 33% 29.77 in 10.0 mi Calm Calm - N/A   Clear
1:53 PM 82.0 °F 81.4 °F 55.0 °F 39% 29.76 in 10.0 mi SE 6.9 mph - N/A   Clear
2:53 PM 75.9 °F - 57.0 °F 52% 29.77 in 10.0 mi WNW 13.8 mph 17.3 mph 0.00 in Rain Light Rain
3:01 PM 73.4 °F - 59.0 °F 61% 29.80 in 10.0 mi NW 13.8 mph - 0.00 in Rain , Thunderstorm Light Rain
3:53 PM 71.1 °F - 61.0 °F 70% 29.80 in 10.0 mi West 9.2 mph - 0.01 in Thunderstorm Mostly Cloudy
4:16 PM 69.8 °F - 60.8 °F 73% 29.82 in 10.0 mi NW 9.2 mph - 0.01 in Rain Light Rain
4:53 PM 69.1 °F - 60.1 °F 73% 29.79 in 10.0 mi NW 10.4 mph - 0.01 in   Partly Cloudy
5:53 PM 69.1 °F - 55.9 °F 63% 29.81 in 10.0 mi NNW 16.1 mph 23.0 mph N/A   Clear
6:53 PM 71.1 °F - 48.9 °F 45% 29.80 in 10.0 mi NNW 18.4 mph 25.3 mph N/A   Clear
7:53 PM 66.0 °F - 50.0 °F 56% 29.85 in 10.0 mi NNW 13.8 mph 26.5 mph N/A   Clear
8:53 PM 62.1 °F - 45.0 °F 53% 29.92 in 10.0 mi NNW 17.3 mph 27.6 mph N/A   Clear
9:53 PM 59.0 °F - 43.0 °F 55% 29.98 in 10.0 mi NNW 20.7 mph 31.1 mph N/A   Clear
10:53 PM 57.0 °F - 39.9 °F 53% 30.02 in 10.0 mi NNW 18.4 mph 27.6 mph N/A   Clear
11:53 PM 55.0 °F - 39.9 °F 57% 30.06 in 10.0 mi NNW 9.2 mph - N/A   Clear